This is the latest recevied weather packets stored in our database for station/object N4WFF. If no packets are shown the sender has not sent any weather packets the latest 10 day(s).
| Time | Temp. | Humidity | Pressure | Rain* | Wind** | Luminosity | Snow |
|---|---|---|---|---|---|---|---|
| 1777503356 | 23.33° C | 86% | 1011.9 hPa | 0.51 mm | - | 6 W/m² | - |
| 1777503056 | 23.89° C | 84% | 1011.9 hPa | 0 mm | - | 7 W/m² | - |
| 1777502756 | 24.44° C | 85% | 1011.9 hPa | 0 mm | - | 5 W/m² | - |
| 1777502457 | 25° C | 84% | 1011.8 hPa | 0 mm | - | 4 W/m² | - |
| 1777502157 | 26.11° C | 83% | 1011.8 hPa | 0.76 mm | - | 5 W/m² | - |
| 1777501856 | 27.22° C | 77% | 1011.9 hPa | 0.51 mm | - | 8 W/m² | - |
| 1777501555 | 27.22° C | 74% | 1011.7 hPa | 0 mm | - | 9 W/m² | - |
| 1777501256 | 27.78° C | 73% | 1011.5 hPa | 0 mm | - | 9 W/m² | - |
| 1777500955 | 27.78° C | 73% | 1011.3 hPa | 0 mm | - | 34 W/m² | - |
| 1777500655 | 27.78° C | 73% | 1011 hPa | 0 mm | - | 53 W/m² | - |
| 1777500356 | 27.78° C | 72% | 1010.9 hPa | 0 mm | - | 50 W/m² | - |
| 1777500055 | 27.78° C | 71% | 1011 hPa | 0 mm | - | 53 W/m² | - |
| 1777499755 | 28.33° C | 71% | 1011 hPa | 0 mm | - | 50 W/m² | - |
| 1777499456 | 28.33° C | 70% | 1011 hPa | 0 mm | - | 60 W/m² | - |
| 1777499155 | 28.33° C | 69% | 1011 hPa | 0 mm | - | 82 W/m² | - |
| 1777498856 | 28.33° C | 69% | 1011.1 hPa | 0 mm | - | 90 W/m² | - |
| 1777498556 | 28.33° C | 70% | 1011 hPa | 0 mm | - | 96 W/m² | - |
| 1777498256 | 28.89° C | 69% | 1011 hPa | 0 mm | - | 109 W/m² | - |
| 1777497956 | 28.89° C | 69% | 1011 hPa | 0 mm | - | 103 W/m² | - |
| 1777497655 | 28.89° C | 66% | 1011.2 hPa | 0 mm | - | 119 W/m² | - |
| 1777497355 | 29.44° C | 65% | 1011.3 hPa | 0 mm | - | 184 W/m² | - |
| 1777497055 | 29.44° C | 64% | 1011.3 hPa | 0 mm | - | 256 W/m² | - |
| 1777496756 | 29.44° C | 62% | 1011.4 hPa | 0 mm | - | 452 W/m² | - |
| 1777496456 | 29.44° C | 65% | 1011.6 hPa | 0 mm | - | 361 W/m² | - |
| 1777496156 | 30° C | 63% | 1011.6 hPa | 0 mm | - | 344 W/m² | - |
* Rain latest hour (hover to see other rain measurements)
** Current wind speed in m/s (hover to see current wind gust speed)